Miscellaneous Local Product
Issued by NWS Hastings, NE

Home | Current Version | Previous Version | Graphics & Text | Print | Product List | Glossary On
Versions: 1 2 3 4 5 6 7 8 9 10 11 12 13 14 15 16 17 18 19 20 21 22 23 24 25 26 27 28 29 30 31 32 33 34 35 36 37 38 39 40 41 42 43 44 45 46 47 48 49 50
000
AXUS43 KGID 282002
MISGRI

GID CWA HOURLY WEATHER ROUNDUP
NATIONAL WEATHER SERVICE HASTINGS NE
300 PM CDT MON JUL 28 2014

NOTE: "FAIR" INDICATES FEW OR NO CLOUDS BELOW 12,000 FEET WITH NO
SIGNIFICANT WEATHER AND/OR OBSTRUCTIONS TO VISIBILITY.

...SOUTH CENTRAL NEBRASKA...

CITY           SKY/WX    TMP DP  RH WIND       PRES   REMARKS
GRAND ISLAND   PTSUNNY   75  55  49 VRB5      30.29F
HASTINGS       MOSUNNY   77  55  46 N8        30.29F
KEARNEY        PTSUNNY   79  57  47 E6        30.29F
ORD            SUNNY     77  53  43 VRB6      30.27F
YORK           MOSUNNY   75  57  53 N10       30.28F
AURORA         MOSUNNY   76  56  51 N6        30.28F
LEXINGTON      SUNNY     81  57  44 E3        30.28F
HOLDREGE       SUNNY     77  57  49 CALM      30.29F
HEBRON         MOSUNNY   77  53  42 N10G16    30.27F

...NEBRASKA PANHANDLE...

CITY           SKY/WX    TMP DP  RH WIND       PRES   REMARKS
CHADRON        MOSUNNY   85  55  35 SE10      30.25F
ALLIANCE       SUNNY     84  57  39 SE8       30.28F
SCOTTSBLUFF    SUNNY     85  60  42 E12       30.27F
SIDNEY         MOSUNNY   87  56  34 SE10G18   30.30F

...WESTERN AND NORTH CENTRAL NEBRASKA...

CITY           SKY/WX    TMP DP  RH WIND       PRES   REMARKS
VALENTINE      SUNNY     80  53  39 VRB6      30.29F
AINSWORTH      SUNNY     75  53  45 E6        30.30F
ONEILL         SUNNY     75  48  38 N6        30.29F
BROKEN BOW     PTSUNNY   80  56  43 VRB3      30.29F
IMPERIAL       SUNNY     87  55  33 SE8G31    30.26F
NORTH PLATTE   SUNNY     82  57  42 E8        30.27F
MCCOOK         SUNNY     85  57  38 SE8       30.26F

...EASTERN NEBRASKA...

CITY           SKY/WX    TMP DP  RH WIND       PRES   REMARKS
NORFOLK        MOSUNNY   76  52  43 NW9       30.27F
SO SIOUX CITY  PTSUNNY   78  58  49 VRB6      30.24S
TEKAMAH        PTSUNNY   78  56  46 NW10      30.24S
ALBION         MOSUNNY   72  53  51 NW6       30.29F
OMAHA EPPLEY   MOSUNNY   77  54  44 N9        30.23F
OFFUTT AFB     SUNNY     78  56  46 NW6       30.23F
MILLARD        MOSUNNY   76  55  48 NW7       30.23F
LINCOLN        PTSUNNY   78  53  41 N10       30.26F
NEBRASKA CITY  MOSUNNY   75  53  46 NW3       30.25F
BEATRICE       MOSUNNY   77  58  52 N12G17    30.25F
FALLS CITY     PTSUNNY   79  59  50 N10       30.22F

...NORTHERN KANSAS...

CITY           SKY/WX    TMP DP  RH WIND       PRES   REMARKS
GOODLAND       SUNNY     84  54  35 S16G23    30.29F
HILL CITY      SUNNY     87  55  33 SE8       30.25F
NORTON         CLEAR     88  50  27 SE8       30.25F
PHILLIPSBURG   SUNNY     84  52  32 N3        30.26F
SMITH CENTER   SUNNY     82  52  34 CALM      30.26F
HAYS           SUNNY     84  57  39 CALM      30.26S
RUSSELL        SUNNY     84  57  39 VRB7      30.24F
CONCORDIA      MOSUNNY   81  59  47 N8        30.25F
SALINA           N/A     87  54  32 NE10      30.23F
TOPEKA         MOSUNNY   83  56  39 NW9       30.21F



USA.gov is the U.S. government's official web portal to all federal, state and local government web resources and services.